Home > Weather > Kolkata > Past weeks

Flag for India Past Weather in Kolkata, West Bengal, India — Yesterday and Last 2 Weeks

Now
84 °F

Partly sunny.


Feels Like: 98 °F
Forecast: 78 / 84 °F
Wind: 8 mph from Southeast

Location: Calcutta / Dum Dum

Current Time: Jul 24, 2016 at 8:25:11 AM

Latest Report: Jul 24, 2016 at 8:00 AM


Visibility: 2 mi

Pressure: 29.71 "Hg

Humidity: 89%

Dew Point: 81 °F

Location of KolkataLocation

Past Weather in Kolkata — Graph

°F

Kolkata Temperature Yesterday

Maximum temperature yesterday: 88 °F (at 8:30 AM)
Minimum temperature yesterday: 79 °F (at 12:00 AM)
Average temperature yesterday: 83 °F

High & Low Weather Summary for the Past Weeks

 TemperatureHumidityPressure
High93 °F (Jul 14, 11:00 AM)100% (Jul 15, 1:30 PM)29.74 "Hg (Jul 15, 1:30 PM)
Low79 °F (Jul 12, 5:00 AM)53% (Jul 17, 2:00 PM)29.33 "Hg (Jul 10, 4:30 PM)
Average85 °F86%29.55 "Hg
* Reported Jul 9 6:30 AM — Jul 24 7:00 AM, Kolkata, Weather by CustomWeather, © 2016

Note: Actual official high and low records may vary slightly from our data, if they occured in-between our weather recording intervals... More about our weather records

Advertising

Kolkata Weather History for the Previous 24 Hours

Scroll right to see more
 ConditionsComfort  
Time TempWeatherWind HumidityBarometerVisibility
7:00 AM
Sun, Jul 24
82 °FBroken clouds.7 mph89%29.68 "Hg2 mi
6:30 AM82 °FBroken clouds.3 mph89%29.68 "Hg2 mi
6:00 AM81 °FBroken clouds.3 mph94%29.68 "Hg2 mi
5:30 AM81 °FPartly cloudy.3 mph94%29.68 "Hg2 mi
5:00 AM81 °FPassing clouds.3 mph94%29.68 "Hg2 mi
4:30 AM81 °FPassing clouds.3 mph94%29.68 "Hg2 mi
4:00 AM81 °FPassing clouds.No wind94%29.68 "Hg2 mi
3:30 AM81 °FPartly cloudy.No wind94%29.68 "Hg2 mi
3:00 AM81 °FPartly cloudy.No wind94%29.65 "Hg2 mi
2:30 AM81 °FPassing clouds.3 mph94%29.65 "Hg2 mi
2:00 AM82 °FPassing clouds.No wind89%29.68 "Hg2 mi
1:30 AM82 °FPassing clouds.3 mph89%29.68 "Hg2 mi
1:00 AM82 °FPassing clouds.5 mph89%29.68 "Hg2 mi
12:30 AM82 °FPassing clouds.6 mph89%29.68 "Hg2 mi
12:00 AM82 °FPassing clouds.6 mph89%29.68 "Hg2 mi
11:30 PM
Sat, Jul 23
82 °FPassing clouds.5 mph89%29.68 "Hg2 mi
11:00 PM82 °FPassing clouds.7 mph84%29.68 "Hg2 mi
10:30 PM82 °FPassing clouds.9 mph84%29.71 "Hg2 mi
10:00 PM82 °FPassing clouds.10 mph84%29.71 "Hg2 mi
9:30 PM82 °FPassing clouds.7 mph84%29.71 "Hg2 mi
9:00 PM82 °FPassing clouds.7 mph84%29.68 "Hg2 mi
8:30 PM82 °FPassing clouds.7 mph84%29.68 "Hg2 mi
8:00 PM84 °FPassing clouds.7 mph84%29.68 "Hg2 mi
7:30 PM84 °FPassing clouds.6 mph89%29.65 "Hg2 mi
7:00 PM84 °FPassing clouds.6 mph89%29.65 "Hg2 mi
6:30 PM84 °FScattered clouds.6 mph89%29.65 "Hg2 mi
6:00 PM84 °FBroken clouds.7 mph89%29.65 "Hg2 mi
5:30 PM84 °FBroken clouds.8 mph89%29.65 "Hg2 mi
5:00 PM84 °FBroken clouds.7 mph89%29.62 "Hg2 mi
4:30 PM84 °FBroken clouds.7 mph89%29.62 "Hg2 mi
4:00 PM84 °FDrizzle. Broken clouds.6 mph89%29.62 "Hg2 mi
3:30 PM84 °FLight rain. Broken clouds.9 mph89%29.62 "Hg2 mi
3:00 PM84 °FLight rain. Broken clouds.9 mph89%29.65 "Hg2 mi
2:30 PM84 °FLight rain. Broken clouds.10 mph89%29.65 "Hg2 mi
2:00 PM82 °FLight rain. More clouds than sun.10 mph94%29.65 "Hg2 mi
1:30 PM82 °FLight rain. More clouds than sun.7 mph94%29.65 "Hg2 mi
1:00 PM82 °FThunderstorms. More clouds than sun.7 mph94%29.65 "Hg2 mi
12:30 PM82 °FThunderstorms. More clouds than sun.8 mph94%29.65 "Hg2 mi
12:00 PM79 °FThunderstorms. More clouds than sun.14 mph94%29.68 "Hg1 mi
11:30 AM81 °FThunderstorms. Broken clouds.13 mph94%29.68 "Hg1 mi
11:00 AM84 °FThunderstorms. Broken clouds.7 mph94%29.68 "Hg1 mi
10:30 AM84 °FThunderstorms. Broken clouds.6 mph94%29.68 "Hg1 mi
10:00 AM88 °FBroken clouds.8 mph79%29.68 "Hg2 mi
9:30 AM88 °FScattered clouds.12 mph79%29.68 "Hg2 mi
9:00 AM88 °FScattered clouds.12 mph79%29.68 "Hg2 mi
8:30 AM88 °FScattered clouds.9 mph79%29.68 "Hg2 mi
8:00 AM86 °FScattered clouds.10 mph84%29.68 "Hg2 mi
Weather by CustomWeather, © 2016

See weather overviewHow to use our weather pages